Location: Chavannes
(47.1090°N, 0.2226°W)
Time: 12:29:47
(UTC+00:00)

SKYMED 2 - Pass Details

Date: 16 October 2021
Orbit: 621 x 623 km, 97.9° (Epoch: 03 December)

Event Time Altitude Azimuth Distance (km) Brightness Sun altitude
Rises 17:50:16 0° 17° (NNE) 2,917 6.8 -7.4°
Reaches altitude 10° 17:52:31 10° 23° (NNE) 2,005 5.9 -7.7°
Maximum altitude 17:56:46 51° 100° (E) 790 3.7 -8.5°
Drops below altitude 10° 18:00:59 10° 176° (S) 1,988 6.2 -9.2°
Sets 18:03:13 0° 182° (S) 2,889 7.1 -9.6°
